When you browse on this site, cookies collect data to enhance your experience and personalize the content and advertising you see.
Visit our Privacy Policy to learn more. By continuing to use the site, you agree to this use of cookies and data.
  • In Romania
  • List of Countries
  • For 7 days
  • Water Temperature
  • Weather Map
  • Weather Widgets
  • user-avatar
    Login

    Hourly Weather Maracay

    Today, 20 August, Tuesday

    Time Temperature Precipitation Wind Pressure Humidity
    00:00 +23°C° 0 mm 1 mps 712 mmHg 88%
    01:00 +23°C° 0 mm 1 mps 711 mmHg 88%
    02:00 +23°C° 0 mm 1 mps 711 mmHg 87%
    03:00 +23°C° 0 mm 1 mps 711 mmHg 86%
    04:00 +23°C° 0 mm 1 mps 712 mmHg 85%
    05:00 +23°C° 0 mm 1 mps 712 mmHg 84%
    06:00 +24°C° 0 mm 1 mps 712 mmHg 83%
    07:00 +25°C° 0 mm 1 mps 713 mmHg 81%
    08:00 +27°C° 0 mm 1 mps 713 mmHg 76%
    09:00 +28°C° 0 mm 2 mps 714 mmHg 70%
    10:00 +30°C° 0 mm 2 mps 714 mmHg 64%
    11:00 +30°C° 0.2 mm 2 mps 713 mmHg 63%
    12:00 +31°C° 0.2 mm 3 mps 713 mmHg 62%
    13:00 +31°C° 0.2 mm 3 mps 712 mmHg 61%
    14:00 +31°C° 0.3 mm 3 mps 712 mmHg 65%
    15:00 +30°C° 0.3 mm 3 mps 711 mmHg 69%
    16:00 +29°C° 0.3 mm 2 mps 711 mmHg 72%
    17:00 +28°C° 0.1 mm 2 mps 711 mmHg 78%
    18:00 +26°C° 0.1 mm 2 mps 712 mmHg 84%
    19:00 +25°C° 0.1 mm 1 mps 712 mmHg 89%
    20:00 +25°C° 0.1 mm 1 mps 712 mmHg 90%
    21:00 +24°C° 0.1 mm 1 mps 713 mmHg 91%
    22:00 +24°C° 0.1 mm 1 mps 713 mmHg 91%
    23:00 +24°C° 0 mm 1 mps 713 mmHg 91%

    Tomorrow, 21 August, Wednesday

    Time Temperature Precipitation Wind Pressure Humidity
    00:00 +23°C° 0 mm 1 mps 712 mmHg 92%
    01:00 +23°C° 0 mm 1 mps 712 mmHg 92%
    02:00 +23°C° 0 mm 1 mps 712 mmHg 91%
    03:00 +23°C° 0 mm 1 mps 712 mmHg 91%
    04:00 +23°C° 0 mm 1 mps 711 mmHg 91%
    05:00 +23°C° 0 mm 1 mps 712 mmHg 90%
    06:00 +24°C° 0 mm 1 mps 712 mmHg 88%
    07:00 +23°C° 0 mm 0 mps 713 mmHg 87%
    08:00 +27°C° 0 mm 1 mps 713 mmHg 79%
    09:00 +28°C° 0 mm 1 mps 713 mmHg 72%
    10:00 +30°C° 0 mm 1 mps 714 mmHg 64%
    11:00 +30°C° 0 mm 2 mps 713 mmHg 62%
    12:00 +31°C° 0 mm 2 mps 713 mmHg 61%
    13:00 +31°C° 0 mm 2 mps 712 mmHg 59%
    14:00 +30°C° 0.2 mm 2 mps 712 mmHg 64%
    15:00 +30°C° 0.2 mm 2 mps 711 mmHg 68%
    16:00 +29°C° 0.2 mm 2 mps 711 mmHg 72%
    17:00 +27°C° 0.1 mm 2 mps 711 mmHg 78%
    18:00 +26°C° 0.1 mm 2 mps 711 mmHg 83%
    19:00 +25°C° 0.1 mm 1 mps 712 mmHg 89%
    20:00 +24°C° 0 mm 1 mps 712 mmHg 89%
    21:00 +24°C° 0 mm 1 mps 712 mmHg 90%
    22:00 +24°C° 0 mm 1 mps 712 mmHg 90%
    23:00 +23°C° 0 mm 1 mps 712 mmHg 90%

    Day after tomorrow, 22 August, Thursday

    Time Temperature Precipitation Wind Pressure Humidity
    00:00 +23°C° 0 mm 1 mps 712 mmHg 89%
    01:00 +23°C° 0 mm 1 mps 711 mmHg 89%
    02:00 +23°C° 0 mm 1 mps 711 mmHg 89%
    03:00 +23°C° 0 mm 1 mps 711 mmHg 88%
    04:00 +23°C° 0 mm 1 mps 711 mmHg 87%
    05:00 +24°C° 0 mm 1 mps 712 mmHg 85%
    06:00 +24°C° 0 mm 1 mps 712 mmHg 83%
    07:00 +25°C° 0 mm 1 mps 713 mmHg 80%
    08:00 +27°C° 0.2 mm 1 mps 713 mmHg 76%
    09:00 +28°C° 0.2 mm 1 mps 713 mmHg 71%
    10:00 +29°C° 0.2 mm 2 mps 713 mmHg 66%
    11:00 +29°C° 0.8 mm 2 mps 713 mmHg 67%
    12:00 +30°C° 0.8 mm 2 mps 712 mmHg 67%
    13:00 +30°C° 0.8 mm 2 mps 711 mmHg 68%
    14:00 +29°C° 2.1 mm 2 mps 711 mmHg 71%
    15:00 +29°C° 2.1 mm 2 mps 711 mmHg 75%
    16:00 +28°C° 2.1 mm 1 mps 710 mmHg 79%
    17:00 +27°C° 0.8 mm 1 mps 711 mmHg 81%
    18:00 +26°C° 0.8 mm 1 mps 711 mmHg 83%
    19:00 +25°C° 0.8 mm 1 mps 711 mmHg 85%
    20:00 +25°C° 0.3 mm 1 mps 712 mmHg 86%
    21:00 +24°C° 0.3 mm 1 mps 712 mmHg 86%
    22:00 +24°C° 0.3 mm 1 mps 712 mmHg 87%
    23:00 +24°C° 0.2 mm 1 mps 712 mmHg 87%

    23 August, Friday

    Time Temperature Precipitation Wind Pressure Humidity
    00:00 +24°C° 0.2 mm 1 mps 711 mmHg 87%
    01:00 +24°C° 0.2 mm 1 mps 711 mmHg 87%
    02:00 +24°C° 0.6 mm 1 mps 711 mmHg 87%
    03:00 +23°C° 0.6 mm 1 mps 711 mmHg 88%
    04:00 +23°C° 0.6 mm 2 mps 711 mmHg 88%
    05:00 +24°C° 0.5 mm 2 mps 712 mmHg 88%
    06:00 +24°C° 0.5 mm 2 mps 712 mmHg 88%
    07:00 +24°C° 0.5 mm 2 mps 712 mmHg 88%
    08:00 +26°C° 0.6 mm 2 mps 713 mmHg 84%
    09:00 +27°C° 0.6 mm 2 mps 713 mmHg 80%
    10:00 +28°C° 0.6 mm 2 mps 713 mmHg 75%
    11:00 +28°C° 1.6 mm 2 mps 713 mmHg 75%
    12:00 +28°C° 1.6 mm 2 mps 712 mmHg 75%
    13:00 +29°C° 1.6 mm 2 mps 712 mmHg 76%
    14:00 +28°C° 1.8 mm 2 mps 711 mmHg 78%
    15:00 +27°C° 1.8 mm 2 mps 711 mmHg 81%
    16:00 +26°C° 1.8 mm 1 mps 711 mmHg 84%
    17:00 +26°C° 0.2 mm 1 mps 711 mmHg 85%
    18:00 +25°C° 0.2 mm 1 mps 711 mmHg 86%
    19:00 +24°C° 0.2 mm 1 mps 711 mmHg 87%
    20:00 +24°C° 0 mm 1 mps 712 mmHg 87%
    21:00 +24°C° 0 mm 1 mps 712 mmHg 87%
    22:00 +24°C° 0 mm 1 mps 712 mmHg 86%
    23:00 +23°C° 0 mm 1 mps 712 mmHg 86%

    24 August, Saturday

    Time Temperature Precipitation Wind Pressure Humidity
    00:00 +23°C° 0 mm 1 mps 711 mmHg 85%
    01:00 +23°C° 0 mm 1 mps 711 mmHg 85%
    02:00 +23°C° 0 mm 1 mps 711 mmHg 85%
    03:00 +23°C° 0 mm 1 mps 711 mmHg 85%
    04:00 +23°C° 0 mm 1 mps 711 mmHg 86%
    05:00 +23°C° 0 mm 1 mps 712 mmHg 84%
    06:00 +24°C° 0 mm 1 mps 712 mmHg 83%
    07:00 +25°C° 0 mm 1 mps 713 mmHg 82%
    08:00 +26°C° 0.4 mm 1 mps 713 mmHg 77%
    09:00 +27°C° 0.4 mm 1 mps 713 mmHg 73%
    10:00 +29°C° 0.4 mm 1 mps 714 mmHg 69%
    11:00 +29°C° 0.7 mm 1 mps 713 mmHg 68%
    12:00 +29°C° 0.7 mm 1 mps 712 mmHg 68%
    13:00 +29°C° 0.7 mm 2 mps 712 mmHg 68%
    14:00 +29°C° 0.2 mm 1 mps 711 mmHg 68%
    15:00 +29°C° 0.2 mm 1 mps 711 mmHg 69%
    16:00 +29°C° 0.2 mm 1 mps 710 mmHg 69%
    17:00 +27°C° 0.2 mm 1 mps 710 mmHg 74%
    18:00 +26°C° 0.2 mm 1 mps 711 mmHg 78%
    19:00 +25°C° 0.2 mm 1 mps 711 mmHg 82%
    20:00 +24°C° 0 mm 1 mps 711 mmHg 83%
    21:00 +24°C° 0 mm 1 mps 712 mmHg 84%
    22:00 +24°C° 0 mm 1 mps 712 mmHg 85%
    23:00 +23°C° 0 mm 1 mps 712 mmHg 86%

    25 August, Sunday

    Time Temperature Precipitation Wind Pressure Humidity
    00:00 +23°C° 0 mm 1 mps 711 mmHg 86%
    01:00 +23°C° 0 mm 1 mps 711 mmHg 86%
    02:00 +23°C° 0 mm 1 mps 711 mmHg 86%
    03:00 +23°C° 0 mm 1 mps 710 mmHg 87%
    04:00 +22°C° 0 mm 1 mps 710 mmHg 87%
    05:00 +23°C° 0 mm 1 mps 711 mmHg 84%
    06:00 +24°C° 0 mm 1 mps 711 mmHg 82%
    07:00 +23°C° 0 mm 0 mps 712 mmHg 79%
    08:00 +27°C° 0 mm 1 mps 712 mmHg 73%
    09:00 +28°C° 0 mm 1 mps 713 mmHg 66%
    10:00 +30°C° 0 mm 1 mps 713 mmHg 60%
    11:00 +30°C° 0.2 mm 1 mps 712 mmHg 59%
    12:00 +31°C° 0.2 mm 2 mps 712 mmHg 59%
    13:00 +31°C° 0.2 mm 2 mps 711 mmHg 59%
    14:00 +30°C° 0.7 mm 2 mps 711 mmHg 65%
    15:00 +29°C° 0.7 mm 2 mps 710 mmHg 70%
    16:00 +29°C° 0.7 mm 1 mps 710 mmHg 76%
    17:00 +27°C° 0.5 mm 1 mps 710 mmHg 79%
    18:00 +26°C° 0.5 mm 1 mps 710 mmHg 83%
    19:00 +25°C° 0.5 mm 2 mps 711 mmHg 86%
    20:00 +24°C° 0 mm 1 mps 711 mmHg 87%
    21:00 +24°C° 0 mm 1 mps 711 mmHg 87%
    22:00 +24°C° 0 mm 1 mps 711 mmHg 88%
    23:00 +23°C° 0 mm 1 mps 711 mmHg 88%
    Show more